Regional Weather Roundup
Issued by NWS

Home | Current Version | Previous Version | Text Only | Print | Product List | Glossary Off
Versions: 1 2 3 4 5 6 7 8 9 10 11 12 13 14 15 16 17 18 19 20 21 22 23 24 25 26 27 28 29 30 31 32 33 34 35 36 37 38 39 40 41 42 43 44 45 46 47 48 49 50

000
ASUS44 KMEG 050810
RWRTN
TENNESSEE HOURLY STATE WEATHER ROUNDUP
NATIONAL WEATHER SERVICE MEMPHIS TN
300 AM CDT SUN JUL 05 2015

TNZ002-004-019-021-049-052-054-088>092-050900-
WEST TENNESSEE

CITY           SKY/WX    TMP DP  RH WIND       PRES   REMARKS
MEMPHIS INTL   PTCLDY    72  69  90 S5        30.05R
NWS MEMPHIS      N/A     69 N/A N/A MISG        N/A
JACKSON        PTCLDY    68  66  93 SW5       30.04S
DYERSBURG        N/A    N/A N/A N/A MISG        N/A
PARIS          CLOUDY    70  70 100 W5        30.04S
LEXINGTON      CLEAR     70  66  88 SW6       30.02F
$$

TNZ008-025-027-028-033-062-065-066-050900-
NORTH MIDDLE TENNESSEE

CITY           SKY/WX    TMP DP  RH WIND       PRES   REMARKS
NASHVILLE      CLOUDY    69  69 100 W3        30.03R
CLARKSVILLE    CLOUDY    71  68  90 W5        30.03R
SMYRNA         LGT RAIN  68  68 100 CALM      30.03R FOG
COOKEVILLE     CLOUDY    68  68 100 E15G51    30.02S
CROSSVILLE     RAIN      68  65  90 CALM      30.06F FOG
$$

TNZ061-075-076-078-094-096-097-050900-
SOUTH MIDDLE TENNESSEE

CITY           SKY/WX    TMP DP  RH WIND       PRES   REMARKS
FAYETTEVILLE   CLOUDY    66  64  94 W6        30.05R
TULLAHOMA      CLOUDY    68  66  94 W8        30.04S
WINCHESTER     CLOUDY    66  66 100 W7        30.04S
MCMINNVILLE    CLOUDY    68  68 100 CALM      30.02F
COLUMBIA       MOCLDY    66  66 100 SW3       30.03R
SHELBYVILLE    CLOUDY    70  70 100 W6          N/A
$$

TNZ017-018-042-046-047-050900-
NORTHEAST TENNESSEE

CITY           SKY/WX    TMP DP  RH WIND       PRES   REMARKS
TRI CITIES     LGT RAIN  69  68  96 CALM      30.10S FOG
ELIZABETHTON   LGT RAIN  66  66 100 CALM      30.11R
$$

TNZ012-013-036-069-073-074-050900-
CENTRAL EAST TENNESSEE

CITY           SKY/WX    TMP DP  RH WIND       PRES   REMARKS
KNOXVILLE      LGT RAIN  69  67  93 NE5       30.04F
OAK RIDGE      HVY RAIN  69  68  96 CALM      30.06F FOG
GATLINBURG     CLOUDY    68  66  94 CALM      30.05F
MORRISTOWN       N/A     70  68  94 CALM      30.08F
$$

TNZ083-085-099-050900-
SOUTHEAST TENNESSEE

CITY           SKY/WX    TMP DP  RH WIND       PRES   REMARKS
CHATTANOOGA    CLOUDY    70  67  90 S8        30.03R
$$

SKY/WX REPORTED AS FAIR MEANS FEW OR NO CLOUDS BELOW
12 THOUSAND FEET.




USA.gov is the U.S. government's official web portal to all federal, state and local government web resources and services.